sat.trackr.live / text

‹ back to catalog

STARLINK-5172

NORAD 54064 · 2022-136P

PAYLOAD ACTIVE UNKNOWN

§ Identity

Operator
Country
US
Launch date
2022-10-20
Launch site
AFETR
Launch vehicle
Mass (kg)
RCS (m²)

Purposes: comms

External: N2YO · Heavens-Above · Gunter

§ Orbital elements

Epoch: 2026-09-20T08:28:31.990656Z

Period
94.01 min
Inclination
53.1597°
Eccentricity
0.0001053
Mean motion
15.31697514 rev/d
Perigee alt
470.0 km
Apogee alt
471.5 km
Semi-major
6,848.9 km
B*
2.2268e-5
RAAN
131.1958°
Arg perigee
82.2678°
Mean anomaly
277.8443°
Rev number
21,705

§ Raw data

STARLINK-51721 54064U 22136P   26263.35314804  .00000326  00000+0  22268-4 0  99942 54064  53.1597 131.1958 0001053  82.2678 277.8443 15.31697514217053

JSON: /api/v1/satellites/54064 · /tle

For live sub-satellite position, see the globe view (requires WebGL).

§ Visibility from observer

Set your observer location to see the next 7 days of passes ≥ 10°. The values pass through the URL so the page stays shareable.

No JS? Fill the form by hand. The geolocation button needs JavaScript.